B6754 ZGGG-ZJHK

Flight info

Callsign B6754
Flight time 1h 16m
Altitude 23600
Route VIBOS9/02L VIBOS R473 ZUH R200 BIGRO G221 GIVIV W605 DOMGO DOMGO8XA
Aircraft SF50/L-SDGRWY/L

Departure

Time 2026-04-23 04:23
Airport Guangzhou Baiyun International Airport (ZGGG)

Arrival

Time 2026-04-23 05:39
Airport Haikou Meilan International Airport (ZJHK)
Time Latitude Longitude Altitude Speed Heading
2026-04-23 04:12 23.36699 113.29901 52 ft 2 kts 14°
2026-04-23 04:12 23.36684 113.29897 52 ft 2 kts 14°
2026-04-23 04:12 23.36671 113.29894 52 ft 2 kts 14°
2026-04-23 04:13 23.36655 113.29889 52 ft 2 kts 14°
2026-04-23 04:13 23.36645 113.29883 52 ft 0 kts 73°
2026-04-23 04:13 23.36646 113.29894 52 ft 0 kts 137°
2026-04-23 04:15 23.36643 113.29897 52 ft 2 kts 133°
2026-04-23 04:16 23.36642 113.29899 52 ft 0 kts 119°
2026-04-23 04:16 23.36637 113.29915 52 ft 6 kts 103°
2026-04-23 04:16 23.36624 113.29977 52 ft 9 kts 96°
2026-04-23 04:16 23.36663 113.30015 52 ft 10 kts 13°
2026-04-23 04:17 23.36742 113.30036 52 ft 14 kts 14°
2026-04-23 04:17 23.36850 113.30065 52 ft 18 kts 11°
2026-04-23 04:17 23.36973 113.30097 52 ft 18 kts 13°
2026-04-23 04:17 23.37087 113.30128 52 ft 16 kts 16°
2026-04-23 04:18 23.37177 113.30152 52 ft 12 kts 17°
2026-04-23 04:18 23.37245 113.30171 52 ft 8 kts 13°
2026-04-23 04:18 23.37268 113.30178 52 ft 0 kts 13°
2026-04-23 04:18 23.37272 113.30179 52 ft 2 kts 15°
2026-04-23 04:19 23.37296 113.30186 52 ft 6 kts 14°
2026-04-23 04:19 23.37363 113.30203 52 ft 13 kts 12°
2026-04-23 04:19 23.37464 113.30231 52 ft 15 kts 14°
2026-04-23 04:19 23.37549 113.30253 52 ft 11 kts
2026-04-23 04:20 23.37608 113.30256 52 ft 6 kts 358°
2026-04-23 04:20 23.37637 113.30277 52 ft 4 kts 77°
2026-04-23 04:20 23.37636 113.30283 52 ft 0 kts 130°
2026-04-23 04:20 23.37634 113.30300 52 ft 8 kts 93°
2026-04-23 04:21 23.37613 113.30407 52 ft 20 kts 104°
2026-04-23 04:21 23.37593 113.30498 52 ft 0 kts 102°
2026-04-23 04:21 23.37590 113.30513 52 ft 7 kts 101°
2026-04-23 04:22 23.37654 113.30554 52 ft 18 kts 12°
2026-04-23 04:22 23.37895 113.30621 52 ft 67 kts 13°
2026-04-23 04:22 23.38529 113.30793 207 ft 108 kts 14°
2026-04-23 04:22 23.39297 113.31144 471 ft 132 kts 18°
2026-04-23 04:23 23.40256 113.31339 667 ft 153 kts
2026-04-23 04:23 23.41323 113.31592 936 ft 157 kts 16°
2026-04-23 04:23 23.42385 113.31898 1590 ft 152 kts 14°
2026-04-23 04:23 23.43388 113.32175 2398 ft 151 kts 17°
2026-04-23 04:24 23.44452 113.32445 2918 ft 162 kts 15°
2026-04-23 04:24 23.45565 113.32802 3459 ft 173 kts 18°
2026-04-23 04:24 23.46757 113.33175 3996 ft 182 kts 15°
2026-04-23 04:24 23.48010 113.33548 4551 ft 191 kts 14°
2026-04-23 04:25 23.49299 113.33931 5164 ft 192 kts 13°
2026-04-23 04:25 23.50585 113.34314 5754 ft 196 kts 13°
2026-04-23 04:25 23.51913 113.34711 6329 ft 199 kts 13°
2026-04-23 04:25 23.53256 113.35109 6879 ft 201 kts 12°
2026-04-23 04:26 23.54607 113.35513 7439 ft 202 kts 12°
2026-04-23 04:26 23.55971 113.35900 7974 ft 202 kts
2026-04-23 04:26 23.57356 113.36152 8525 ft 202 kts
2026-04-23 04:26 23.58747 113.36413 9073 ft 204 kts
2026-04-23 04:27 23.60140 113.36473 9586 ft 198 kts 344°
2026-04-23 04:27 23.61427 113.36029 10105 ft 191 kts 326°
2026-04-23 04:27 23.62472 113.35217 10587 ft 185 kts 309°
2026-04-23 04:28 23.63662 113.32862 11575 ft 176 kts 277°
2026-04-23 04:28 23.63837 113.31543 12050 ft 176 kts 275°
2026-04-23 04:28 23.64033 113.30222 12540 ft 177 kts 275°
2026-04-23 04:28 23.64221 113.28896 13022 ft 177 kts 274°
2026-04-23 04:29 23.64402 113.27565 13504 ft 178 kts 274°
2026-04-23 04:29 23.64587 113.26226 13948 ft 179 kts 274°
2026-04-23 04:29 23.64771 113.24877 14353 ft 180 kts 275°
2026-04-23 04:29 23.64956 113.23540 14742 ft 181 kts 275°
2026-04-23 04:30 23.65141 113.22178 15131 ft 182 kts 275°
2026-04-23 04:30 23.65328 113.20812 15513 ft 182 kts 275°
2026-04-23 04:30 23.65517 113.19442 15886 ft 184 kts 275°
2026-04-23 04:30 23.65647 113.18058 16247 ft 183 kts 267°
2026-04-23 04:31 23.65485 113.16682 16611 ft 183 kts 257°
2026-04-23 04:31 23.65059 113.15403 16960 ft 185 kts 246°
2026-04-23 04:31 23.64393 113.14262 17291 ft 189 kts 235°
2026-04-23 04:31 23.63475 113.13250 17622 ft 192 kts 228°
2026-04-23 04:32 23.62501 113.12242 17950 ft 193 kts 229°
2026-04-23 04:32 23.61530 113.11223 18268 ft 194 kts 229°
2026-04-23 04:32 23.60549 113.10206 18554 ft 195 kts 229°
2026-04-23 04:32 23.59537 113.09207 18822 ft 199 kts 223°
2026-04-23 04:33 23.59037 113.08845 18945 ft 201 kts 217°
2026-04-23 04:33 23.57058 113.08014 19370 ft 211 kts 200°
2026-04-23 04:33 23.54110 113.07906 19614 ft 232 kts 188°
2026-04-23 04:34 23.50769 113.07908 19624 ft 247 kts 187°
2026-04-23 04:34 23.47316 113.07932 19623 ft 254 kts 187°
2026-04-23 04:34 23.43754 113.07952 19623 ft 257 kts 187°
2026-04-23 04:34 23.40151 113.07975 19621 ft 260 kts 187°
2026-04-23 04:35 23.36516 113.07994 19621 ft 262 kts 187°
2026-04-23 04:35 23.32866 113.08016 19622 ft 263 kts 187°
2026-04-23 04:35 23.29206 113.08036 19622 ft 263 kts 187°
2026-04-23 04:35 23.25540 113.08408 19615 ft 272 kts 173°
2026-04-23 04:36 23.22044 113.09972 19599 ft 276 kts 165°
2026-04-23 04:36 23.18504 113.11552 19593 ft 277 kts 165°
2026-04-23 04:36 23.14938 113.13185 19594 ft 278 kts 165°
2026-04-23 04:36 23.11374 113.14805 19594 ft 278 kts 165°
2026-04-23 04:37 23.07792 113.16434 19589 ft 279 kts 165°
2026-04-23 04:37 23.04209 113.18064 19589 ft 279 kts 165°
2026-04-23 04:37 23.00608 113.19556 19587 ft 274 kts 171°
2026-04-23 04:37 22.96958 113.20799 19582 ft 275 kts 169°
2026-04-23 04:38 22.93314 113.22071 19583 ft 275 kts 170°
2026-04-23 04:38 22.89713 113.23322 19582 ft 276 kts 170°
2026-04-23 04:38 22.86056 113.24592 19577 ft 276 kts 170°
2026-04-23 04:38 22.82388 113.25864 19569 ft 277 kts 170°
2026-04-23 04:39 22.78715 113.27139 19570 ft 277 kts 170°
2026-04-23 04:39 22.75041 113.28412 19569 ft 277 kts 170°
2026-04-23 04:39 22.71364 113.29686 19564 ft 277 kts 170°
2026-04-23 04:39 22.67685 113.30958 19563 ft 277 kts 170°
2026-04-23 04:40 22.64057 113.32214 19561 ft 277 kts 170°
2026-04-23 04:40 22.60387 113.33483 19561 ft 277 kts 170°
2026-04-23 04:40 22.56719 113.34744 19557 ft 276 kts 169°
2026-04-23 04:40 22.52742 113.36112 19558 ft 276 kts 169°
2026-04-23 04:41 22.38054 113.41162 19554 ft 277 kts 169°
2026-04-23 04:41 22.34389 113.42417 19545 ft 277 kts 169°
2026-04-23 04:41 22.27712 113.44437 19544 ft 265 kts 185°
2026-04-23 04:41 22.24192 113.43828 19546 ft 251 kts 207°
2026-04-23 04:42 22.21348 113.41884 19537 ft 242 kts 228°
2026-04-23 04:42 22.19434 113.38960 19537 ft 238 kts 247°
2026-04-23 04:42 22.18199 113.35652 19541 ft 238 kts 249°
2026-04-23 04:42 22.16937 113.32345 19541 ft 239 kts 249°
2026-04-23 04:43 22.15679 113.29023 19542 ft 239 kts 249°
2026-04-23 04:43 22.14416 113.25697 19541 ft 240 kts 249°
2026-04-23 04:43 22.13107 113.22383 19544 ft 240 kts 247°
2026-04-23 04:43 22.11731 113.19107 19545 ft 240 kts 248°
2026-04-23 04:44 22.10365 113.15816 19542 ft 241 kts 248°
2026-04-23 04:44 22.09012 113.12559 19541 ft 241 kts 248°
2026-04-23 04:44 22.07637 113.09255 19554 ft 242 kts 248°
2026-04-23 04:44 22.06261 113.05952 19558 ft 242 kts 248°
2026-04-23 04:45 22.04879 113.02636 19558 ft 242 kts 248°
2026-04-23 04:45 22.03508 112.99325 19548 ft 241 kts 248°
2026-04-23 04:45 22.02215 112.95980 19555 ft 244 kts 249°
2026-04-23 04:45 22.00896 112.92594 19545 ft 244 kts 249°
2026-04-23 04:46 21.99585 112.89228 19549 ft 244 kts 249°
2026-04-23 04:46 21.98308 112.85956 20109 ft 225 kts 249°
2026-04-23 04:46 21.97200 112.83112 21655 ft 190 kts 249°
2026-04-23 04:46 21.96246 112.80650 22975 ft 168 kts 249°
2026-04-23 04:47 21.95392 112.78424 24014 ft 155 kts 249°
2026-04-23 04:47 21.94030 112.74806 25404 ft 139 kts 251°
2026-04-23 04:47 21.92651 112.71017 26614 ft 134 kts 252°
2026-04-23 04:47 21.91050 112.66345 28027 ft 136 kts 254°
2026-04-23 04:48 21.89776 112.62431 28361 ft 148 kts 255°
2026-04-23 04:48 21.86943 112.57809 24827 ft 223 kts 248°
2026-04-23 04:48 21.84187 112.50783 19568 ft 250 kts 249°
2026-04-23 04:48 21.81605 112.44264 19558 ft 241 kts 248°
2026-04-23 04:49 21.78961 112.37609 19558 ft 243 kts 248°
2026-04-23 04:49 21.76550 112.31549 19564 ft 245 kts 248°
2026-04-23 04:49 21.75412 112.28690 19565 ft 245 kts 248°
2026-04-23 04:49 21.75077 112.27849 19568 ft 245 kts 248°
2026-04-23 04:50 21.74742 112.27005 19568 ft 245 kts 248°
2026-04-23 04:50 21.74407 112.26162 19567 ft 245 kts 248°
2026-04-23 04:50 21.74071 112.25319 19563 ft 245 kts 248°
2026-04-23 04:50 21.73739 112.24490 19567 ft 245 kts 248°
2026-04-23 04:51 21.73404 112.23649 19567 ft 245 kts 248°
2026-04-23 04:51 21.73069 112.22808 19563 ft 245 kts 248°
2026-04-23 04:51 21.72734 112.21967 19561 ft 245 kts 248°
2026-04-23 04:51 21.72398 112.21126 19566 ft 245 kts 248°
2026-04-23 04:52 21.72063 112.20285 19566 ft 245 kts 248°
2026-04-23 04:52 21.71728 112.19444 19569 ft 245 kts 248°
2026-04-23 04:52 21.71393 112.18604 19567 ft 245 kts 248°
2026-04-23 04:52 21.71058 112.17765 19569 ft 245 kts 248°
2026-04-23 04:53 21.70726 112.16936 19569 ft 244 kts 248°
2026-04-23 04:53 21.70391 112.16096 19565 ft 244 kts 248°
2026-04-23 04:53 21.70057 112.15256 19567 ft 244 kts 248°
2026-04-23 04:53 21.69722 112.14416 19563 ft 244 kts 248°
2026-04-23 04:54 21.69386 112.13577 19569 ft 244 kts 248°
2026-04-23 04:54 21.69050 112.12737 19567 ft 244 kts 248°
2026-04-23 04:54 21.68715 112.11898 19568 ft 245 kts 248°
2026-04-23 04:54 21.68379 112.11057 19568 ft 245 kts 248°
2026-04-23 04:55 21.68044 112.10217 19568 ft 245 kts 248°
2026-04-23 04:55 21.67711 112.09387 19568 ft 245 kts 248°
2026-04-23 04:55 21.67375 112.08546 19568 ft 245 kts 248°
2026-04-23 04:55 21.67038 112.07704 19569 ft 245 kts 248°
2026-04-23 04:56 21.66702 112.06861 19563 ft 245 kts 248°
2026-04-23 04:56 21.66365 112.06019 19571 ft 246 kts 248°
2026-04-23 04:56 21.66026 112.05175 19569 ft 246 kts 248°
2026-04-23 04:56 21.65689 112.04332 19572 ft 246 kts 248°
2026-04-23 04:57 21.65352 112.03489 19572 ft 246 kts 248°
2026-04-23 04:57 21.65014 112.02644 19570 ft 246 kts 248°
2026-04-23 04:57 21.64676 112.01799 19564 ft 246 kts 248°
2026-04-23 04:57 21.64342 112.00968 19568 ft 246 kts 248°
2026-04-23 04:58 21.64003 112.00123 19572 ft 246 kts 248°
2026-04-23 04:58 21.63666 111.99279 19570 ft 246 kts 248°
2026-04-23 04:58 21.63328 111.98433 19573 ft 246 kts 248°
2026-04-23 04:58 21.62989 111.97587 19571 ft 246 kts 248°
2026-04-23 04:59 21.62650 111.96742 19572 ft 246 kts 248°
2026-04-23 04:59 21.62310 111.95896 19566 ft 247 kts 248°
2026-04-23 04:59 21.61971 111.95049 19568 ft 247 kts 248°
2026-04-23 04:59 21.61636 111.94213 19570 ft 247 kts 248°
2026-04-23 05:00 21.61296 111.93366 19573 ft 247 kts 248°
2026-04-23 05:00 21.60955 111.92518 19572 ft 247 kts 248°
2026-04-23 05:00 21.60614 111.91670 19573 ft 247 kts 248°
2026-04-23 05:00 21.60274 111.90822 19573 ft 247 kts 248°
2026-04-23 05:01 21.59935 111.89973 19571 ft 247 kts 248°
2026-04-23 05:01 21.59595 111.89125 19569 ft 247 kts 248°
2026-04-23 05:01 21.59254 111.88277 19570 ft 247 kts 248°
2026-04-23 05:01 21.58918 111.87442 19567 ft 247 kts 248°
2026-04-23 05:02 21.58578 111.86596 19567 ft 247 kts 248°
2026-04-23 05:02 21.58239 111.85750 19568 ft 246 kts 248°
2026-04-23 05:02 21.57899 111.84906 19569 ft 246 kts 248°
2026-04-23 05:02 21.57561 111.84061 19561 ft 246 kts 248°
2026-04-23 05:03 21.57203 111.83228 19566 ft 246 kts 244°
2026-04-23 05:03 21.56765 111.82435 19565 ft 247 kts 238°
2026-04-23 05:03 21.56246 111.81696 19560 ft 249 kts 233°
2026-04-23 05:03 21.55677 111.80998 19561 ft 248 kts 231°
2026-04-23 05:04 21.55109 111.80299 19564 ft 248 kts 232°
2026-04-23 05:04 21.54557 111.79604 19571 ft 248 kts 232°
2026-04-23 05:04 21.54001 111.78895 19569 ft 248 kts 232°
2026-04-23 05:04 21.53444 111.78187 19570 ft 248 kts 232°
2026-04-23 05:05 21.52886 111.77480 19568 ft 248 kts 232°
2026-04-23 05:05 21.52326 111.76775 19568 ft 248 kts 232°
2026-04-23 05:05 21.51764 111.76069 19565 ft 248 kts 232°
2026-04-23 05:05 21.51204 111.75364 19564 ft 249 kts 232°
2026-04-23 05:06 21.50644 111.74658 19564 ft 249 kts 232°
2026-04-23 05:06 21.50082 111.73951 19570 ft 249 kts 232°
2026-04-23 05:06 21.49528 111.73254 19562 ft 249 kts 232°
2026-04-23 05:06 21.48967 111.72549 19561 ft 249 kts 232°
2026-04-23 05:07 21.48406 111.71842 19565 ft 249 kts 232°
2026-04-23 05:07 21.47844 111.71135 19565 ft 249 kts 232°
2026-04-23 05:07 21.47284 111.70429 19565 ft 249 kts 232°
2026-04-23 05:07 21.46720 111.69721 19563 ft 249 kts 232°
2026-04-23 05:08 21.46158 111.69015 19563 ft 249 kts 232°
2026-04-23 05:08 21.45310 111.67948 19563 ft 249 kts 232°
2026-04-23 05:08 21.44360 111.66752 19564 ft 249 kts 232°
2026-04-23 05:08 21.43236 111.65341 19563 ft 249 kts 232°
2026-04-23 05:09 21.42111 111.63926 19563 ft 249 kts 232°
2026-04-23 05:09 21.40987 111.62514 19563 ft 249 kts 232°
2026-04-23 05:09 21.39864 111.61104 19560 ft 249 kts 232°
2026-04-23 05:09 21.38740 111.59691 19559 ft 249 kts 232°
2026-04-23 05:10 21.37614 111.58280 19565 ft 249 kts 232°
2026-04-23 05:10 21.36490 111.56867 19566 ft 249 kts 232°
2026-04-23 05:10 21.35382 111.55477 19561 ft 249 kts 232°
2026-04-23 05:10 21.34258 111.54068 19561 ft 249 kts 232°
2026-04-23 05:11 21.33135 111.52659 19555 ft 248 kts 232°
2026-04-23 05:11 21.32011 111.51250 19555 ft 248 kts 232°
2026-04-23 05:11 21.30892 111.49846 19561 ft 248 kts 232°
2026-04-23 05:11 21.29769 111.48440 19557 ft 248 kts 232°
2026-04-23 05:12 21.28648 111.47035 19554 ft 248 kts 232°
2026-04-23 05:12 21.27527 111.45631 19553 ft 248 kts 232°
2026-04-23 05:12 21.26422 111.44248 19551 ft 248 kts 232°
2026-04-23 05:12 21.25301 111.42843 19550 ft 248 kts 232°
2026-04-23 05:13 21.24178 111.41440 19552 ft 248 kts 232°
2026-04-23 05:13 21.23059 111.40038 19551 ft 248 kts 232°
2026-04-23 05:13 21.21939 111.38637 19554 ft 248 kts 232°
2026-04-23 05:14 21.19698 111.35834 19551 ft 248 kts 232°
2026-04-23 05:14 21.18578 111.34436 19547 ft 248 kts 232°
2026-04-23 05:14 21.17457 111.33034 19551 ft 248 kts 232°
2026-04-23 05:14 21.16350 111.31652 19549 ft 248 kts 232°
2026-04-23 05:15 21.15230 111.30252 19555 ft 248 kts 232°
2026-04-23 05:15 21.14109 111.28852 19555 ft 248 kts 232°
2026-04-23 05:15 21.12988 111.27454 19557 ft 247 kts 232°
2026-04-23 05:15 21.11869 111.26055 19551 ft 247 kts 232°
2026-04-23 05:16 21.10747 111.24657 19548 ft 247 kts 232°
2026-04-23 05:16 21.09627 111.23259 19548 ft 247 kts 232°
2026-04-23 05:16 21.08507 111.21862 19548 ft 247 kts 232°
2026-04-23 05:16 21.07399 111.20482 19546 ft 247 kts 232°
2026-04-23 05:17 21.06280 111.19085 19548 ft 247 kts 232°
2026-04-23 05:17 21.05159 111.17690 19543 ft 247 kts 232°
2026-04-23 05:17 21.04037 111.16290 19540 ft 247 kts 232°
2026-04-23 05:17 21.02916 111.14895 19548 ft 247 kts 232°
2026-04-23 05:18 21.01792 111.13496 19540 ft 247 kts 232°
2026-04-23 05:18 21.00672 111.12100 19544 ft 248 kts 232°
2026-04-23 05:18 20.99548 111.10703 19539 ft 248 kts 232°
2026-04-23 05:18 20.98426 111.09305 19544 ft 248 kts 232°
2026-04-23 05:19 20.97300 111.07906 19541 ft 248 kts 232°
2026-04-23 05:19 20.96179 111.06538 19536 ft 248 kts 229°
2026-04-23 05:19 20.94828 111.05372 19540 ft 252 kts 217°
2026-04-23 05:19 20.93263 111.04513 19541 ft 254 kts 208°
2026-04-23 05:20 20.91640 111.03759 19538 ft 254 kts 208°
2026-04-23 05:20 20.90029 111.02982 19538 ft 254 kts 209°
2026-04-23 05:20 20.88413 111.02211 19544 ft 254 kts 208°
2026-04-23 05:20 20.86794 111.01444 19542 ft 255 kts 208°
2026-04-23 05:21 20.85175 111.00674 19534 ft 255 kts 208°
2026-04-23 05:21 20.83578 110.99918 19539 ft 255 kts 208°
2026-04-23 05:21 20.81956 110.99147 19536 ft 255 kts 208°
2026-04-23 05:21 20.80336 110.98378 19539 ft 255 kts 208°
2026-04-23 05:22 20.78711 110.97608 19541 ft 255 kts 208°
2026-04-23 05:22 20.77090 110.96838 19541 ft 255 kts 208°
2026-04-23 05:22 20.75467 110.96070 19538 ft 255 kts 208°
2026-04-23 05:22 20.73846 110.95300 19541 ft 255 kts 208°
2026-04-23 05:23 20.72223 110.94531 19531 ft 255 kts 208°
2026-04-23 05:23 20.70599 110.93762 19531 ft 255 kts 208°
2026-04-23 05:23 20.68995 110.93001 19465 ft 258 kts 208°
2026-04-23 05:23 20.67322 110.92206 19178 ft 269 kts 208°
2026-04-23 05:24 20.65572 110.91376 18830 ft 282 kts 208°
2026-04-23 05:24 20.63742 110.90510 18450 ft 293 kts 207°
2026-04-23 05:24 20.61848 110.89614 18043 ft 301 kts 207°
2026-04-23 05:24 20.59915 110.88697 17613 ft 307 kts 207°
2026-04-23 05:25 20.57954 110.87768 17203 ft 310 kts 207°
2026-04-23 05:25 20.55982 110.86834 16789 ft 310 kts 207°
2026-04-23 05:25 20.54025 110.85907 16382 ft 306 kts 207°
2026-04-23 05:25 20.52110 110.85001 15984 ft 304 kts 206°
2026-04-23 05:26 20.50148 110.84203 15580 ft 303 kts 198°
2026-04-23 05:26 20.48064 110.83838 15178 ft 303 kts 187°
2026-04-23 05:26 20.45965 110.83689 14783 ft 302 kts 187°
2026-04-23 05:26 20.43875 110.83522 14386 ft 301 kts 187°
2026-04-23 05:27 20.41792 110.83352 13990 ft 300 kts 187°
2026-04-23 05:27 20.39714 110.83190 13588 ft 298 kts 186°
2026-04-23 05:27 20.37651 110.83029 13171 ft 296 kts 186°
2026-04-23 05:27 20.35606 110.82869 12776 ft 294 kts 186°
2026-04-23 05:28 20.34257 110.82762 12515 ft 292 kts 186°
2026-04-23 05:28 20.31589 110.82554 12011 ft 288 kts 186°
2026-04-23 05:28 20.29593 110.82397 11627 ft 287 kts 186°
2026-04-23 05:28 20.27601 110.82239 11248 ft 287 kts 186°
2026-04-23 05:29 20.25615 110.82085 10868 ft 286 kts 186°
2026-04-23 05:29 20.23637 110.81929 10492 ft 284 kts 186°
2026-04-23 05:29 20.21669 110.81774 10120 ft 283 kts 186°
2026-04-23 05:29 20.19712 110.81622 9748 ft 281 kts 186°
2026-04-23 05:30 20.17767 110.81469 9351 ft 279 kts 186°
2026-04-23 05:30 20.15860 110.81326 8986 ft 278 kts 186°
2026-04-23 05:30 20.14011 110.81198 8636 ft 254 kts 186°
2026-04-23 05:30 20.12316 110.81074 8348 ft 236 kts 186°
2026-04-23 05:31 20.10705 110.80954 8086 ft 230 kts 186°
2026-04-23 05:31 20.09117 110.80836 7802 ft 228 kts 186°
2026-04-23 05:31 20.07542 110.80719 7498 ft 226 kts 187°
2026-04-23 05:31 20.05973 110.80604 7199 ft 226 kts 186°
2026-04-23 05:32 20.04401 110.80489 6921 ft 227 kts 186°
2026-04-23 05:32 20.02842 110.80372 6628 ft 227 kts 186°
2026-04-23 05:32 20.01270 110.80254 6334 ft 226 kts 186°
2026-04-23 05:32 19.99711 110.80102 6026 ft 223 kts 192°
2026-04-23 05:33 19.98280 110.79549 5851 ft 219 kts 208°
2026-04-23 05:33 19.97048 110.78597 5614 ft 220 kts 225°
2026-04-23 05:33 19.96120 110.77312 5336 ft 219 kts 240°
2026-04-23 05:33 19.95574 110.75803 5052 ft 220 kts 256°
2026-04-23 05:34 19.95440 110.74192 4765 ft 218 kts 269°
2026-04-23 05:34 19.95453 110.72600 4472 ft 219 kts 269°
2026-04-23 05:34 19.95442 110.70985 4181 ft 218 kts 268°
2026-04-23 05:34 19.95435 110.69378 3890 ft 216 kts 268°
2026-04-23 05:35 19.95432 110.67782 3607 ft 217 kts 269°
2026-04-23 05:35 19.95431 110.66181 3290 ft 217 kts 268°
2026-04-23 05:35 19.95427 110.64586 2976 ft 214 kts 268°
2026-04-23 05:35 19.95424 110.63543 2790 ft 212 kts 268°
2026-04-23 05:36 19.95415 110.61492 2421 ft 204 kts 267°
2026-04-23 05:36 19.95412 110.60006 2165 ft 205 kts 269°
2026-04-23 05:36 19.95413 110.58478 1902 ft 208 kts 269°
2026-04-23 05:36 19.95398 110.56946 1634 ft 205 kts 270°
2026-04-23 05:37 19.95404 110.55483 1369 ft 188 kts 271°
2026-04-23 05:37 19.95396 110.54126 1134 ft 181 kts 271°
2026-04-23 05:37 19.95391 110.52804 912 ft 180 kts 271°
2026-04-23 05:37 19.95389 110.51932 785 ft 170 kts 271°
2026-04-23 05:38 19.95383 110.50371 519 ft 148 kts 270°
2026-04-23 05:38 19.95391 110.49303 334 ft 144 kts 270°
2026-04-23 05:38 19.95348 110.48258 171 ft 142 kts 269°
2026-04-23 05:38 19.95373 110.47220 70 ft 137 kts 274°
2026-04-23 05:39 19.95391 110.46305 59 ft 110 kts 266°
2026-04-23 05:39 19.95385 110.45628 51 ft 64 kts 265°
2026-04-23 05:39 19.95387 110.45219 47 ft 48 kts 265°
2026-04-23 05:39 19.95306 110.44983 45 ft 22 kts 185°
2026-04-23 05:40 19.95171 110.44970 46 ft 18 kts 185°
2026-04-23 05:40 19.95100 110.44966 47 ft 13 kts 182°
2026-04-23 05:40 19.95045 110.44971 47 ft 10 kts 174°
2026-04-23 05:41 19.95039 110.44971 48 ft 9 kts 168°
2026-04-23 05:42 19.94978 110.45042 48 ft 20 kts 131°
2026-04-23 05:42 19.94882 110.45170 50 ft 26 kts 117°
2026-04-23 05:42 19.94834 110.45205 51 ft 0 kts 240°